FLOCK 3K-11 (43904 NORAD) Tracking and Keplerian Element Data

This shows tracking and keplerian element data for the satellite.

Feedback or suggestion? Click here.




ElementValue
Catalog43904
NameFLOCK 3K-11
Epoch Orbit17249
Epoch Day30.92315323
Epoch Year2022
RAAN284.953
Inclination97.2134
Eccentricity0.0016461
Argument of Perigee191.6575
Mean Anonmoly168.4288
Mean Motion15.32039641
Decay Rate5.129E-05
L11 43904U 18111AE 22030.92315323 .00005129 00000+0 16761-3 0 9997
L22 43904 97.2134 284.9530 0016461 191.6575 168.4288 15.32039641172495



Live tracking and technical data element details for FLOCK 3K-11 (NORAD 43904). FLOCK 3K-11 can be tracked NOW for your location showing map with azimuth and elevation plus other details from your city location.







IsCatalogInMostPopularTable: catalog: 43904, numindb: 603
Update: records affected: 1



GetName: 43904 FLOCK 3K-11

Hit Count: updated at: Sat, 07 Mar 2026 05:19:28 GMT